Content
SEND FEEDBACK

Daily
Averages
Monthly
Summary
Russia

MOSCOW, RUSSIA


Home > Europe > Russia
Elevation: 623 feet     Latitude: 55 58N     Longitude: 037 25E

WEATHER
 
SELECT A DAY
Number of Records: 299,506;   Date Range: 7/1/96 - 9/21/14
 
SHARE

PRINT THIS DATA

[ ← Previous Day ]
WEATHER ALMANAC - JANUARY 31, 2013
[ Next Day → ]
[ °C ]   °F
Weather ElementAverageHighLow
Temperature26.7 °F30.2 °F (3:00 pm)24.8 °F (1:00 am)
Dewpoint23 °F26.6 °F (9:30 pm)21.2 °F (12:30 am)
Humidity86.2 %93 % (3:30 am)75 % (3:00 pm)
Barometer29.64 in29.83 in (12:30 am)29.47 in (11:00 pm)
Wind Speed11.4 mph15.7 mph (2:00 pm)
Wind Gust26.8 mph (3:00 pm)
Weather ElementAverage
Visibility4.7 mi
Wind DirectionSSE (173.4 °)

Weather ElementTotal
Precipitation---
Heating Degree Days37.5 (Base 65)
Averaged from 47 records on January 31, 2013
WEATHER CONDITIONS BREAKOUT
WIND DIRECTION BREAKOUT
WEATHER BY HOUR - JANUARY 31, 2013
[ °C ]   °F
Local TimeTemperatureDewpointHumidityBarometerVisibilityWind DirectionWind SpeedGust SpeedPrecipitationEventsConditions
12:30 AM26.6 °F21.2 °F80 %29.83 in6.2 miSouth (180°)11.2 mphOvercast
1:00 AM24.8 °F21.2 °F86 %29.83 in6.2 miSouth (180°)8.9 mphOvercast
1:30 AM24.8 °F21.2 °F86 %29.80 in6.2 miSouth (180°)8.9 mphOvercast
2:00 AM24.8 °F21.2 °F86 %29.80 in6.2 miSouth (180°)8.9 mphOvercast
2:30 AM24.8 °F21.2 °F86 %29.80 in6.2 miSouth (190°)8.9 mphOvercast
3:00 AM24.8 °F21.2 °F86 %29.80 in6.2 miSouth (190°)8.9 mphOvercast
3:30 AM24.8 °F23.0 °F93 %29.80 in6.2 miSouth (180°)8.9 mphOvercast
4:00 AM24.8 °F23.0 °F93 %29.80 in6.2 miSouth (170°)8.9 mphOvercast
4:30 AM24.8 °F23.0 °F93 %29.77 in6.2 miSouth (180°)8.9 mphOvercast
5:00 AM24.8 °F23.0 °F93 %29.77 in6.2 miSouth (170°)8.9 mphOvercast
5:30 AM24.8 °F23.0 °F93 %29.74 in6.2 miSSE (160°)11.2 mphOvercast
6:00 AM24.8 °F23.0 °F93 %29.74 in6.2 miSouth (170°)11.2 mphOvercast
6:30 AM24.8 °F23.0 °F93 %29.71 in6.2 miSouth (170°)11.2 mphOvercast
7:00 AM24.8 °F21.2 °F86 %29.71 in6.2 miSSE (160°)8.9 mphOvercast
7:30 AM24.8 °F21.2 °F86 %29.71 in6.2 miSouth (170°)8.9 mphOvercast
8:00 AM24.8 °F21.2 °F86 %29.71 in6.2 miSouth (170°)8.9 mphOvercast
8:30 AM24.8 °F21.2 °F86 %29.68 in6.2 miSouth (180°)11.2 mphOvercast
9:00 AM24.8 °F23.0 °F93 %29.68 in6.2 miSouth (180°)11.2 mphOvercast
9:30 AM24.8 °F23.0 °F93 %29.68 in3.1 miSouth (170°)11.2 mphOvercast
10:00 AM24.8 °F23.0 °F93 %29.65 in3.1 miSouth (170°)13.4 mphOvercast
10:30 AM24.8 °F21.2 °F86 %29.65 in3.1 miSouth (170°)13.4 mphOvercast
11:00 AM26.6 °F21.2 °F80 %29.65 in3.1 miSouth (170°)11.2 mphOvercast
11:30 AM26.6 °F21.2 °F80 %29.65 in3.1 miSouth (180°)11.2 mphOvercast
12:00 PM26.6 °F23.0 °F86 %29.62 inSouth (170°)13.4 mphSnowLight Snow
12:30 PM26.6 °F23.0 °F86 %29.62 in3.1 miSouth (170°)13.4 mphSnowLight Snow
1:00 PM26.6 °F23.0 °F86 %29.62 in6.2 miSouth (170°)13.4 mph24.6 mphSnowLight Snow
1:30 PM28.4 °F23.0 °F80 %29.59 in6.2 miSouth (180°)13.4 mphSnowLight Snow
2:00 PM28.4 °F23.0 °F80 %29.59 in6.2 miSouth (180°)15.7 mphMostly Cloudy
2:30 PM28.4 °F23.0 °F80 %29.59 in6.2 miSouth (180°)13.4 mph24.6 mphOvercast
3:00 PM30.2 °F23.0 °F75 %29.56 in6.2 miSouth (170°)13.4 mph26.8 mphOvercast
3:30 PM28.4 °F23.0 °F80 %29.56 in6.2 miSouth (180°)13.4 mph24.6 mphOvercast
4:00 PM28.4 °F23.0 °F80 %29.56 in6.2 miSouth (180°)13.4 mphOvercast
4:30 PM28.4 °F23.0 °F80 %29.56 in6.2 miSouth (170°)13.4 mphOvercast
5:00 PM28.4 °F23.0 °F80 %29.56 in6.2 miSouth (170°)13.4 mphOvercast
5:30 PM28.4 °F23.0 °F80 %29.53 in6.2 miSouth (170°)13.4 mphOvercast
6:00 PM28.4 °F23.0 °F80 %29.53 in3.1 miSouth (170°)13.4 mphSnowLight Snow
6:30 PM28.4 °F23.0 °F80 %29.53 inSouth (170°)11.2 mphSnowLight Snow
7:00 PM28.4 °F24.8 °F86 %29.53 in1.9 miSSE (160°)11.2 mphSnowLight Snow
7:30 PM28.4 °F24.8 °F86 %29.53 in1.4 miSouth (170°)11.2 mphSnowLight Snow
8:00 PM28.4 °F24.8 °F86 %29.53 in1.4 miSouth (170°)11.2 mphSnowLight Snow
8:30 PM28.4 °F24.8 °F86 %29.53 in1.0 miSouth (170°)11.2 mphSnowSnow
9:00 PM28.4 °F24.8 °F86 %29.50 in1.4 miSouth (170°)11.2 mphSnowLight Snow
9:30 PM28.4 °F26.6 °F93 %29.50 in1.4 miSouth (170°)11.2 mphSnowLight Snow
10:00 PM28.4 °F26.6 °F93 %29.50 in1.4 miSouth (180°)13.4 mphSnowLight Snow
10:30 PM28.4 °F26.6 °F93 %29.50 in1.4 miSouth (170°)11.2 mphSnowLight Snow
11:00 PM28.4 °F24.8 °F86 %29.47 in0.9 miSouth (170°)11.2 mphSnowSnow
11:30 PM28.4 °F26.6 °F93 %29.47 in1.9 miSouth (170°)11.2 mphSnowLight Snow
Hourly data recorded from UUEE, located miles away from Moscow, Russia







STORIES FROM OUR PARTNERS